LJLJLJPZ

Guest
Details From LJLJ - Ljubljana
To LJPZ - Portoroz
Flight Number -
Tags Generated
Created
Modified
Stats Distance 57 nm / 106 km
Max Altitude 0 ft / 0 m
Waypoints 2
Social Downloads 8
Likes 0
Share VATSIM

Download

Looking for another format? Having issues loading an existing format? Contact us
Advertisement - Login to hide

Notes

Generated

Route

LJLJ LJPZ

ID Type Via Altitude Latitude Longitude Leg Dist Tot Dist Heading (true) Name
O LJLJ APT - 0 ft / 0 m 46.23249˚ 14.44039˚ - 0 nm - -
O LJPZ APT - 0 ft / 0 m 45.47718˚ 13.61198˚ 57 nm 57 nm 218° / 217° -

Altitude Profile

Advertisement - Login to hide

LJLJ

Details ICAO LJLJ (LJU)
Name LJUBLJANA
Region Slovenia
Timezone Europe/Ljubljana (UTC+1.0)
Stats Elevation 1,273 ft / 388 m (AMSL)
Location 46.223685° 14.457608°
Runways 1
Magnetic Variation 3.661° E

METAR

LJLJ 140430Z 26005KT 220V280 9999 OVC030 04/01 Q1007 R30/29//95 NOSIG

Decode

TAF

TAF LJLJ 140200Z 1403/1503 30003KT 7000 FEW003 OVC035 TEMPO 1403/1410 3500 -RA BR BKN010 OVC020 PROB40 TEMPO 1403/1408 0500 FZFG BECMG 1408/1410 27005KT 9999 TEMPO 1412/1418 27010KT SCT035 TEMPO 1416/1503 7000 SHRA SCT030TCU BKN035

Decode

Departure Runways

ID Width Length Bearing (true) Bearing (mag) Surface Threshold Offset Overrun Length
13 148 ft / 45 m 10,811 ft / 3,295 m 126.47° 122.81° Asphalt 0 ft / 0 m 0 ft / 0 m
31 148 ft / 45 m 10,811 ft / 3,295 m 306.49° 302.83° Asphalt 0 ft / 0 m 0 ft / 0 m

LJPZ

Details ICAO LJPZ (POW)
Name PORTOROZ
Region Slovenia
Timezone Europe/Ljubljana (UTC+1.0)
Stats Elevation 7 ft / 2 m (AMSL)
Location 45.472445° 13.615681°
Runways 1
Magnetic Variation 3.443° E

METAR

LJPZ 140430Z AUTO 15006KT 120V180 9999 -SHRA BKN060/// BKN075/// 08/05 Q1010

Decode

TAF

Not found

Destination Runways

ID Width Length Bearing (true) Bearing (mag) Surface Threshold Offset Overrun Length
15 98 ft / 30 m 3,939 ft / 1,201 m 151.28° 147.84° Asphalt 0 ft / 0 m 0 ft / 0 m
33 98 ft / 30 m 3,939 ft / 1,201 m 331.29° 327.85° Asphalt 751 ft / 229 m 0 ft / 0 m

Popular Alternatives